sat.trackr.live / text

‹ back to catalog

STARLINK-3535

NORAD 51722 · 2022-016J

PAYLOAD ACTIVE UNKNOWN

§ Identity

Operator
Country
US
Launch date
2022-02-21
Launch site
AFETR
Launch vehicle
Mass (kg)
RCS (m²)

Purposes: comms

External: N2YO · Heavens-Above · Gunter

§ Orbital elements

Epoch: 2026-09-19T22:38:05.927424Z

Period
93.79 min
Inclination
53.1606°
Eccentricity
0.0001489
Mean motion
15.35406620 rev/d
Perigee alt
458.7 km
Apogee alt
460.7 km
Semi-major
6,837.8 km
B*
-1.0994e-5
RAAN
166.0470°
Arg perigee
74.1806°
Mean anomaly
285.9362°
Rev number
25,289

§ Raw data

STARLINK-35351 51722U 22016J   26262.94312416 -.00000764  00000+0 -10994-4 0  99912 51722  53.1606 166.0470 0001489  74.1806 285.9362 15.35406620252895

JSON: /api/v1/satellites/51722 · /tle

For live sub-satellite position, see the globe view (requires WebGL).

§ Visibility from observer

Set your observer location to see the next 7 days of passes ≥ 10°. The values pass through the URL so the page stays shareable.

No JS? Fill the form by hand. The geolocation button needs JavaScript.